This is the latest recevied weather packets stored in our database for station/object WX7FGZ-3. If no packets are shown the sender has not sent any weather packets the latest 10 day(s).
| Time | Temp. | Humidity | Pressure | Rain* | Wind** | Luminosity | Snow |
|---|---|---|---|---|---|---|---|
| 1777505274 | 16.67° C | 18% | 1010.3 hPa | 0 mm | - | - | - |
| 1777503472 | 17.22° C | 18% | 1010.3 hPa | 0 mm | - | - | - |
| 1777503172 | 17.22° C | 17% | 1010.1 hPa | 0 mm | - | - | - |
| 1777502871 | 17.78° C | 13% | 1010.3 hPa | 0 mm | - | - | - |
| 1777502571 | 17.78° C | 13% | 1010.4 hPa | 0 mm | - | - | - |
| 1777502271 | 17.78° C | 14% | 1010.4 hPa | 0 mm | - | - | - |
| 1777501370 | 17.78° C | 15% | 1010.7 hPa | 0 mm | - | - | - |
| 1777500770 | 17.78° C | 14% | 1010.6 hPa | 0 mm | - | - | - |
| 1777500169 | 17.78° C | 15% | 1010.8 hPa | 0 mm | - | - | - |
| 1777499569 | 17.78° C | 14% | 1010.7 hPa | 0 mm | - | - | - |
| 1777498668 | 17.78° C | 15% | 1011.1 hPa | 0 mm | - | - | - |
| 1777498367 | 17.78° C | 18% | 1011.1 hPa | 0 mm | - | - | - |
| 1777498067 | 17.78° C | 16% | 1011.2 hPa | 0 mm | - | - | - |
| 1777497767 | 17.78° C | 16% | 1011.4 hPa | 0 mm | - | - | - |
| 1777497466 | 17.78° C | 18% | 1011.4 hPa | 0 mm | - | - | - |
| 1777497167 | 17.78° C | 17% | 1011.5 hPa | 0 mm | - | - | - |
| 1777496866 | 17.78° C | 17% | 1011.5 hPa | 0 mm | - | - | - |
| 1777495965 | 17.78° C | 18% | 1011.6 hPa | 0 mm | - | - | - |
| 1777495664 | 17.22° C | 19% | 1011.6 hPa | 0 mm | - | - | - |
| 1777495064 | 17.22° C | 17% | 1011.9 hPa | 0 mm | - | - | - |
| 1777494764 | 17.22° C | 18% | 1011.8 hPa | 0 mm | - | - | - |
| 1777494463 | 16.67° C | 18% | 1011.9 hPa | 0 mm | - | - | - |
| 1777494163 | 16.67° C | 16% | 1012.1 hPa | 0 mm | - | - | - |
| 1777493863 | 17.22° C | 19% | 1011.9 hPa | 0 mm | - | - | - |
| 1777493563 | 17.22° C | 19% | 1012.1 hPa | 0 mm | - | - | - |
* Rain latest hour (hover to see other rain measurements)
** Current wind speed in m/s (hover to see current wind gust speed)